Location: Mangapakeha Stream
(40.9000°S, 176.0333°E)
Time: 21:59:58
(UTC+00:00)

Daily predictions for brighter satellites

Satellite Brightness Start Highest point End
(mag) Time Altitude Azimuth Time Altitude Azimuth Time Altitude Azimuth
IDEFIX/ARIANE 42P 4.4 12:12:55 26° SE 12:12:55 26° SE 12:15:57 10° S
USA 281 4.4 12:29:09 10° SE 12:33:26 32° ESE 12:33:26 32° ESE
SJ 16-02 4.2 12:37:01 10° SSW 12:37:28 13° SW 12:37:28 13° SW
H-2A R/B 4.5 13:05:49 13° ESE 13:06:44 14° ESE 13:09:07 10° SSE
ACS3 Solar Sail 2.5 13:07:58 45° SE 13:07:58 45° SE 13:12:52 10° S
USA 59 Rocket 1.6 13:10:38 10° SW 13:20:31 88° SE 13:20:48 85° ENE
CZ-2D R/B 3.3 13:27:04 37° SE 13:27:04 37° SE 13:31:11 10° S
ALOS 4.2 13:27:54 26° SE 13:27:54 26° SE 13:30:46 10° S
CZ-2C R/B 3.6 13:31:27 10° SSE 13:35:09 44° SSE 13:35:09 44° SSE
COSMOS 2455 3.8 13:31:43 10° SSW 13:37:27 43° SE 13:38:23 40° ESE
Cosmos 2074 Rocket 4.2 13:36:50 10° S 13:42:22 68° S 13:42:22 68° S
NOSS 3-1 (C) 3.8 13:38:30 10° SSW 13:44:19 56° SSE 13:44:19 56° SSE
Cosmos 2082 Rocket 4.3 13:46:21 16° E 13:46:30 16° E 13:49:48 10° ESE
ADEOS II 3.0 13:48:38 44° ESE 13:48:38 44° ESE 13:53:17 10° S
Cosmos 2184 Rocket 4.2 13:43:55 10° S 13:49:19 67° S 13:49:19 67° S
IDEFIX/ARIANE 42P 4.5 13:53:37 20° SW 13:53:37 20° SW 13:55:33 10° SSW
ADEOS Rocket 3.1 14:00:55 83° S 14:00:55 83° S 14:07:32 10° SSW
Resurs 1-4 Rocket 2.8 14:05:13 50° SSW 14:05:13 50° SSW 14:09:09 10° SSW
ATLAS 2AS CENTAUR R/B 4.4 14:03:19 19° ENE 14:04:46 20° ENE 14:09:47 10° ESE
Meteor 1-13 Rocket 4.4 14:15:00 65° S 14:15:00 65° S 14:19:46 10° S
USA 281 3.9 14:13:35 10° S 14:19:44 42° WSW 14:20:17 41° WSW
Meteor 1-15 Rocket 4.2 14:19:38 10° S 14:25:23 83° SE 14:25:23 83° SE
Nadezhda 1 Rocket 4.1 14:28:11 62° WSW 14:28:11 62° WSW 14:34:13 10° S
CZ-3 R/B 4.4 13:39:15 10° WNW 14:30:46 57° N 14:43:59 10° ENE
Timation 1 Rocket 4.3 14:30:54 74° NE 14:31:01 75° ENE 14:37:04 10° SSE
H-2A R/B 2.9 14:31:53 48° SE 14:31:53 48° SE 14:35:25 10° S
METEOR-M 4.2 14:31:33 71° E 14:31:45 72° ESE 14:37:08 10° S
Cosmos 1953 4.5 14:29:29 10° S 14:30:45 20° S 14:30:45 20° S
Cosmos 1980 Rocket 3.1 14:30:38 10° SSW 14:36:08 46° ESE 14:40:49 14° NE
Cosmos 1833 Rocket 3.5 14:36:49 40° SW 14:36:49 40° SW 14:41:57 10° S
Envisat 4.2 14:42:16 31° SW 14:42:16 31° SW 14:45:17 10° SSW
H-2A R/B 2.2 14:46:19 57° SW 14:46:19 57° SW 14:50:22 10° SSW
Meteor 1-21 4.1 14:45:40 79° WNW 14:45:55 82° W 14:51:46 10° S
Cosmos 1697 Rocket 2.9 14:41:52 10° SSW 14:46:29 55° WSW 14:46:29 55° WSW
SL-8 Rocket 4.0 14:41:36 10° S 14:48:02 80° E 14:49:54 49° NNE
ACS3 Solar Sail 3.2 14:51:44 22° WSW 14:51:44 22° WSW 14:54:46 10° SW
Cosmos 2181 Rocket 4.1 14:56:47 44° NNE 14:58:51 71° E 15:05:03 10° SSE
Cosmos 839 Rocket 4.4 14:57:43 45° N 15:00:10 70° ENE 15:06:41 10° SE
Cosmos 2218 Rocket 4.0 14:55:56 10° S 15:02:18 85° E 15:04:53 39° N
ALOS 4.1 15:05:57 19° SW 15:05:57 19° SW 15:07:40 10° SW
Cosmos 1933 Rocket 3.6 15:00:36 10° S 15:05:07 77° E 15:05:21 74° ENE
CZ-2D R/B 3.7 15:08:20 21° WSW 15:08:20 21° WSW 15:10:42 10° SW
COSMOS 2406 4.3 15:04:06 26° NNE 15:06:31 37° ENE 15:11:46 10° SE
USA 59 Rocket 3.0 15:01:56 10° WSW 15:06:19 20° W 15:06:19 20° W
Meteor 1-12 Rocket 4.2 15:04:58 10° SSW 15:10:57 80° W 15:12:45 47° N
USA 32 4.2 15:09:47 10° SSW 15:14:56 52° W 15:15:01 52° W
CZ-3 Stage 3 3.6 15:16:48 37° NNW 15:19:32 48° NNE 15:41:21 10° E
Cosmos 1821 Rocket 4.0 15:14:16 10° S 15:20:48 84° E 15:25:20 21° N
COSMOS 2455 3.9 15:17:56 10° SW 15:21:24 27° WSW 15:21:24 27° WSW
SL-08 RB Rocket 3.8 15:25:18 26° NNE 15:27:49 73° ESE 15:32:21 10° S
ADEOS II 3.6 15:29:27 20° WSW 15:29:27 20° WSW 15:32:06 10° SW
Cosmos 2082 Rocket 2.2 15:28:11 46° NW 15:29:52 71° WSW 15:35:37 10° SSE
Cosmos 44 4.3 15:29:27 29° WSW 15:30:07 30° SW 15:34:12 10° SSE
Cosmos 1869 Rocket 3.5 15:28:24 10° S 15:32:56 77° W 15:34:06 48° N
Cosmos 2369 3.9 15:28:02 10° SSW 15:33:51 73° ESE 15:39:34 10° NNE
Geosat 4.5 15:29:36 10° SE 15:34:34 54° ENE 15:37:03 28° N
Okean 3 3.6 15:35:02 52° W 15:35:07 52° W 15:39:13 10° S
NOSS 3-1 (A) 3.3 15:35:35 10° SW 15:41:23 45° WNW 15:42:54 35° NNW
H-2A R/B 2.1 15:38:41 10° SSE 15:42:21 76° ENE 15:43:13 49° N
Cosmos 2228 Rocket 4.4 15:38:45 11° NNE 15:42:48 39° E 15:47:07 10° SSE
PAYLOAD A 4.1 15:38:15 10° NNE 15:43:39 87° ESE 15:48:58 10° SSW
SL-16 R/B 3.8 15:38:48 10° S 15:44:04 36° ESE 15:49:16 10° NE
Cosmos 1503 Rocket 3.9 15:41:38 10° SSW 15:46:54 83° WNW 15:52:04 10° NNE
CZ-2C R/B 2.4 15:43:41 18° N 15:47:28 74° WNW 15:52:42 10° SSW
Meteor 2-15 Rocket 4.4 15:41:29 10° S 15:47:42 82° W 15:53:52 10° N
Cosmos 220 Rocket 4.1 15:47:50 32° N 15:49:32 65° ENE 15:53:37 10° SSE
Cosmos 2333 Rocket 4.0 15:46:05 10° S 15:51:20 34° ESE 15:56:34 10° ENE
ARGOS 3.6 15:50:58 32° NW 15:52:39 41° W 15:57:50 10° SSW
Cosmos 1328 4.5 15:52:00 17° NNE 15:54:25 45° E 15:57:52 10° SSE
ATLAS 2AS CENTAUR R/B 2.8 15:50:46 28° NW 15:54:51 79° SW 16:02:12 10° SSE
Cosmos 1862 Rocket 3.7 15:52:39 22° N 15:55:28 78° E 15:59:59 10° S
Cosmos 2239 Rocket 4.5 15:51:35 10° S 15:58:00 82° W 16:04:21 10° N
Cosmos 1763 Rocket 3.7 15:57:05 30° NW 15:59:34 59° WSW 16:04:52 10° SSE
MOZ.5/SAFIR/RUBIN 5/SL-8 4.0 15:58:33 10° S 16:03:07 52° WSW 16:05:15 28° NW
Cosmos 1707 Rocket 3.5 16:03:35 20° N 16:06:37 84° W 16:11:08 10° S
H-2A R/B 4.2 16:08:16 11° WSW 16:08:16 11° WSW 16:08:51 10° WSW
Cosmos 468 Rocket 4.0 16:05:42 19° NNW 16:09:38 88° ENE 16:15:00 10° SSE
Cosmos 1777 Rocket 4.4 16:06:45 10° SW 16:11:38 39° WNW 16:16:17 11° NNW
Lacrosse 5 rocket 1.5 16:13:48 23° NNW 16:15:46 52° NE 16:19:14 10° SE
Cosmos 2322 Rocket 3.9 16:10:28 10° S 16:15:46 37° ESE 16:21:02 10° NE
Cosmos 1733 Rocket 3.0 16:11:21 10° SSW 16:15:49 68° W 16:20:13 10° N
USA 229 DEB 4.5 16:10:21 10° SSW 16:16:39 48° SE 16:22:18 10° ENE
Cosmos 1980 Rocket 3.2 16:15:15 10° SW 16:19:46 25° WNW 16:22:21 18° NW
BREEZE-M DEB (TANK) 4.0 16:19:29 13° SW 16:20:43 20° S 16:22:47 10° SE
IRS-1D 3.6 16:21:21 10° NNE 16:26:18 76° ESE 16:31:19 10° S
DMSP B5D2-2 4.2 16:23:18 10° S 16:28:29 58° WSW 16:33:18 12° NNW
Cosmos 1939 Rocket 3.0 16:25:26 10° N 16:29:05 46° W 16:32:45 10° SSW
ATLAS 3B R/B 3.6 16:23:39 10° SSW 16:29:47 50° SE 16:36:14 10° NE
USA 267 3.6 16:25:39 10° SE 16:32:14 65° NE 16:38:46 10° NW
BlueWalker 3 3.3 16:28:47 10° SW 16:32:17 39° SSE 16:35:46 10° ENE
Cosmos 841 Rocket 3.8 16:27:42 10° N 16:32:51 68° ENE 16:38:06 10° SSE
NOAA 12 4.1 16:27:40 10° NNE 16:33:01 87° WNW 16:38:27 10° SSW
Cosmos 2237 4.4 16:27:59 10° SW 16:33:31 49° WNW 16:39:00 10° N
Cosmos 540 Rocket 4.3 16:30:29 17° WNW 16:33:45 33° WSW 16:38:28 10° S
Gblst 52 Del rocket 4.4 16:31:07 16° NW 16:35:57 87° NE 16:42:40 10° SE
Cosmos 2278 3.9 16:33:51 10° SSW 16:39:37 81° ESE 16:45:20 10° NNE
Cosmos 1354 Rocket 4.5 16:35:20 10° SW 16:40:13 39° WNW 16:45:03 10° N
Okean 1-7 3.7 16:38:33 14° NW 16:41:47 35° WSW 16:45:44 10° S
Cosmos 372 Rocket 4.0 16:42:32 10° SSW 16:47:44 88° WNW 16:52:49 10° NNE
Cosmos 1898 Rocket 3.8 16:42:41 10° SSW 16:47:57 73° ESE 16:53:09 10° NNE
CZ-4C R/B 4.4 16:41:30 10° N 16:49:46 41° ENE 16:57:02 10° SE
Cosmos 2360 Rocket 2.9 16:44:21 10° SSW 16:50:02 61° ESE 16:55:37 10° NE
ATLAS 5 CENTAUR R/B 4.3 16:45:20 10° SSW 16:50:15 27° SE 16:54:24 10° E
COSMOS 2406 4.1 16:46:09 12° WNW 16:50:47 33° WSW 16:55:58 10° S
SL-16 R/B 3.1 16:47:20 10° SSE 16:53:36 62° ENE 16:59:44 10° N
Cosmos 1934 Rocket 4.3 16:53:09 10° SSW 16:58:57 45° W 17:04:40 10° NNW
Atlas Centaur 2 3.6 16:59:42 10° N 17:00:35 11° NNE 17:01:29 10° NNE
Cosmos 1300 Rocket 4.2 16:56:46 10° S 17:01:08 62° E 17:05:26 10° NNE
Cosmos 1937 Rocket 3.8 16:59:03 10° SSW 17:04:16 74° ESE 17:09:23 10° NNE
Cosmos 1818 3.5 17:00:41 10° SW 17:06:05 74° WNW 17:11:27 10° NNE
Meteor 1-28 Rocket 4.3 17:04:05 10° SSE 17:07:17 41° E 17:10:26 10° N
Cosmos 1703 Rocket 3.8 17:06:57 10° NNW 17:11:18 51° W 17:15:42 10° S
